Location: *
(50.2903°S, 172.5375°W)
Time: 23:49:41
(UTC+00:00)

Resurs 1-4 Rocket - Pass Details

Date: 17 November 2019
Orbit: 799 x 814 km, 98.6° (Epoch: 14 December)

Event Time Altitude Azimuth Distance (km) Brightness Sun altitude
Exits shadow 13:56:09 11° 288° (WNW) 2,325 4.0 -12.2°
Maximum altitude 13:58:05 13° 265° (W) 2,189 4.0 -12.0°
Drops below altitude 10° 14:00:31 10° 238° (WSW) 2,409 4.5 -11.7°
Sets 14:04:19 0° 210° (SSW) 3,352 5.6 -11.3°
